World > North America > United States > Ohio

Baltic, Ohio Regional Weather

Lat: 40.44N, Lon: 81.7W
Wx Zone: OHZ039Web Search
Baltic Weather Warning NWS WEATHER ALERT FOR THE BALTIC, OH AREA - Issued: 817 AM EDT Sun May 9 2021 Baltic Weather Warning  

Our weather pages are very print friendly and they make great conversation starters.

Feedback


°F Click to change Baltic hourly weather to Imperial units.Click to change Baltic hourly weather to Metric units. °C
Baltic Weather Map
UTC Time: 5/9/2021, 16:16
Your Time:

Baltic, OH Regional Weather

Expires:202105091700;;846838
ASUS41 KCLE 091612
RWRCLE
OHIO REGIONAL WEATHER ROUNDUP
NATIONAL WEATHER SERVICE WILMINGTON, OH
1200 PM EDT SUN MAY 09 2021

NOTE: "FAIR" INDICATES FEW OR NO CLOUDS BELOW 12,000 FEET WITH NO
SIGNIFICANT WEATHER AND/OR OBSTRUCTIONS TO VISIBILITY.


OHZ036-037-039>041-045>050-054>059-063>069-073>076-082>088-091700-
  CENTRAL AND SOUTHEAST OHIO
  
CITY           SKY/WX    TMP DP  RH WIND       PRES   REMARKS
COLUMBUS       HVY RAIN  43  42  97 E16       29.79F FOG              
OSU AIRPORT    RAIN      44  42  93 E10       29.78F FOG              
BOLTON FIELD   LGT RAIN  43  43 100 E13G21    29.79F                  
RICKENBACK AFB HVY RAIN  43  42  96 E12       29.79F                  
NEWARK         RAIN      44  42  93 E10       29.82F FOG              
MARION         RAIN      41  38  89 E15       29.81F FOG              
LANCASTER      RAIN      45  42  89 E9        29.82F                  
ZANESVILLE     LGT RAIN  45  42  89 NE6       29.88R                  
NEW PHILLY     RAIN      42  41  96 E12       29.88F FOG              
$$
  

SKY/WX - Weather  TMP - Temperature  DP - Dew Point  RH - Relative Humidity
WIND - Wind Direction/Speed PRES - Barometric Pressure VSB - Visibility
WCI - Wind Chill Index E13G22 Wind - East Wind 13 mph/Gusts of 22 mph